Content
SEND FEEDBACK

Daily
Averages
Monthly
Summary
United States of America

POTTS JUNCTION, GUAM


Home > North America > United States > Guam
Elevation: 360 feet     Latitude: 13 33N     Longitude: 144 50E

WEATHER
 
SELECT A DAY
Number of Records: 209,308;   Date Range: 1/1/95 - 9/18/14
 
SHARE

PRINT THIS DATA

[ ← Previous Day ]
WEATHER ALMANAC - MAY 2, 2013
[ Next Day → ]
[ °C ]   °F
Weather ElementAverageHighLow
Temperature81.4 °F84.2 °F (11:26 am)78.8 °F (2:42 am)
Dewpoint76.7 °F78.8 °F (4:05 am)75 °F (5:54 am)
Humidity85.9 %90 % (2:54 am)79 % (4:37 pm)
Barometer29.83 in29.90 in (8:57 am)29.78 in (2:54 am)
Wind Speed4.8 mph15 mph (2:26 am)
Wind Gust21.9 mph (2:26 am)
Weather ElementAverage
Visibility8.7 mi
Wind DirectionENE (76.9 °)

Weather ElementTotal
Precipitation1.92 in
Cooling Degree Days16.5 (Base 65)
Growing Degree Days31.5 (Base 50)
Averaged from 45 records on May 2, 2013
WEATHER CONDITIONS BREAKOUT
WIND DIRECTION BREAKOUT
WEATHER BY HOUR - MAY 2, 2013
[ °C ]   °F
Local TimeTemperatureDewpointHumidityBarometerVisibilityWind DirectionWind SpeedGust SpeedPrecipitationEventsConditions
12:54 AM80.1 °F75.9 °F87 %29.81 in10.0 miEast (80°)5.8 mph0.01 inMostly Cloudy
1:54 AM81.0 °F77.0 °F88 %29.80 in10.0 miCalmMostly Cloudy
2:17 AM80.6 °F75.2 °F84 %29.82 in10.0 miEast (80°)12.7 mph16.1 mphScattered Clouds
2:26 AM80.6 °F75.2 °F84 %29.82 in4.0 miEast (100°)15.0 mph21.9 mph0.00 inRainLight Rain
2:42 AM78.8 °F75.2 °F89 %29.81 in2.5 miEast (90°)11.5 mph0.09 inRainHeavy Rain
2:50 AM78.8 °F75.2 °F89 %29.80 in3.0 miEast (90°)8.1 mph0.16 inRainHeavy Rain
2:54 AM79.0 °F75.9 °F90 %29.78 in3.0 miEast (80°)6.9 mph0.21 inRainHeavy Rain
3:17 AM80.6 °F77.0 °F89 %29.79 in10.0 miEast (90°)9.2 mph0.05 inMostly Cloudy
3:54 AM81.0 °F77.0 °F88 %29.78 in10.0 miEast (90°)8.1 mph0.12 inMostly Cloudy
4:05 AM82.4 °F78.8 °F89 %29.80 in10.0 miEast (80°)8.1 mphMostly Cloudy
4:31 AM80.6 °F75.2 °F84 %29.81 in10.0 miSSE (150°)9.2 mph17.3 mph0.00 inRainLight Rain
4:54 AM80.1 °F75.9 °F87 %29.79 in10.0 miESE (120°)4.6 mph0.00 inRainLight Rain
5:54 AM79.0 °F75.0 °F88 %29.81 in10.0 miESE (110°)8.1 mph0.10 inRainLight Rain
6:54 AM80.1 °F75.9 °F87 %29.83 in10.0 miESE (110°)6.9 mph0.06 inRainLight Rain
7:54 AM80.1 °F75.0 °F85 %29.84 in10.0 miCalm0.03 inRainLight Rain
8:54 AM81.0 °F77.0 °F88 %29.87 in10.0 miCalm0.01 inRainLight Rain
8:57 AM80.6 °F77.0 °F89 %29.90 in10.0 miCalm0.00 inRainLight Rain
9:08 AM82.4 °F77.0 °F84 %29.90 in10.0 miCalm0.01 inMostly Cloudy
9:41 AM82.4 °F78.8 °F89 %29.89 in10.0 miENE (60°)5.8 mph0.01 inMostly Cloudy
9:54 AM82.9 °F78.1 °F85 %29.87 in10.0 miEast (80°)5.8 mph0.01 inOvercast
10:54 AM84.0 °F78.1 °F82 %29.86 in10.0 miEast (90°)4.6 mphScattered Clouds
11:26 AM84.2 °F78.8 °F84 %29.87 in1.8 miCalmHaze
11:34 AM82.4 °F77.0 °F84 %29.87 in7.0 miVariable6.9 mph0.00 inRainLight Rain
11:54 AM79.0 °F75.9 °F90 %29.85 in6.0 miWSW (250°)6.9 mph0.03 inRainHeavy Rain
11:59 AM78.8 °F75.2 °F89 %29.87 in2.0 miWSW (250°)6.9 mph0.09 inRainHeavy Rain
12:13 PM78.8 °F75.2 °F89 %29.86 in4.0 miSW (220°)5.8 mph0.26 inRainHeavy Rain
12:39 PM80.6 °F75.2 °F84 %29.86 in10.0 miCalm0.32 inRainLight Rain
12:54 PM80.1 °F77.0 °F90 %29.83 in10.0 miCalm0.32 inRainLight Rain
1:38 PM80.6 °F77.0 °F89 %29.84 in10.0 miCalm0.01 inMostly Cloudy
1:52 PM82.4 °F77.0 °F84 %29.84 in9.0 miNorth (10°)4.6 mph0.01 inMostly Cloudy
1:54 PM82.0 °F77.0 °F85 %29.81 in9.0 miNNE (30°)4.6 mph0.01 inMostly Cloudy
2:17 PM82.4 °F78.8 °F89 %29.83 in10.0 miCalmMostly Cloudy
2:54 PM82.9 °F77.0 °F82 %29.81 in10.0 miSE (130°)4.6 mphMostly Cloudy
3:54 PM82.9 °F78.1 °F85 %29.80 in10.0 miSE (130°)5.8 mphScattered Clouds
4:37 PM84.2 °F77.0 °F79 %29.81 in10.0 miSE (140°)4.6 mphMostly Cloudy
4:54 PM84.0 °F77.0 °F79 %29.80 in10.0 miSE (130°)5.8 mphScattered Clouds
5:54 PM82.9 °F77.0 °F82 %29.81 in10.0 miESE (110°)5.8 mphScattered Clouds
6:54 PM82.0 °F75.9 °F82 %29.83 in10.0 miCalm0.00 inMostly Cloudy
7:06 PM82.4 °F77.0 °F84 %29.86 in10.0 miCalmMostly Cloudy
7:23 PM82.4 °F77.0 °F84 %29.85 in10.0 miCalmScattered Clouds
7:54 PM82.0 °F77.0 °F85 %29.83 in10.0 miESE (110°)3.5 mphClear
8:54 PM82.0 °F77.0 °F85 %29.84 in10.0 miESE (120°)3.5 mphClear
9:54 PM82.0 °F77.0 °F85 %29.85 in10.0 miESE (110°)3.5 mphMostly Cloudy
10:54 PM82.0 °F77.0 °F85 %29.87 in10.0 miESE (110°)5.8 mphScattered Clouds
11:54 PM82.9 °F78.1 °F85 %29.86 in10.0 miESE (110°)5.8 mph0.00 inMostly Cloudy
Hourly data recorded from PGUM, located miles away from Potts Junction, Guam







STORIES FROM OUR PARTNERS